بكين, Beijing

07:58 PM CST on دسمبر 22, 2014 (GMT +0800)
Beijing Capital | Change Station
CLOSE
Current Station
Airport
Location: Beijing,
Elevation: 115 ft
Nearby Weather Stations

Elev 115 ft 40.07 °N, 116.59 °E | Updated 28 minutes ago

Clear
صافية
34 °F
Feels Like 34 °F
N
2
ريح متغير ريح from متغير

هذا اليوم
High -- | Low -- °F
--% Chance of Precip.
Yesterday
High -- | Low -- °F
Precip. -- في
7:32 AM 4:51 PM
قمر جدید, 0% visible
الضغط 30.18 في
وضوح الرؤية 4.3 أميال
سحابات
نقطة الندى 9 °F
الرطوبة 35%
Rainfall 0.00 في
عمق الثلج Not available.
الأشعة فوق البنفسجية Not available.
Pollen Not available.
جودة الهواء Not available.
Flu Activity Not available.
METAR ZBAA 221130Z VRB01MPS 7000 NSC 01/M13 Q1022 NOSIG

More Conditions Fewer Conditions

الضغط 30.18 في
وضوح الرؤية 4.3 أميال
سحابات
نقطة الندى 9 °F
الرطوبة 35%
Rainfall 0.00 في
عمق الثلج Not available.
الأشعة فوق البنفسجية Not available.
Pollen Not available.
جودة الهواء Not available.
Flu Activity Not available.
METAR ZBAA 221130Z VRB01MPS 7000 NSC 01/M13 Q1022 NOSIG

More Conditions Fewer Conditions

10-Day Weather Forecast

Almanac

علم الفلك

Dec. 22, 2014 Rise Set
Actual Time
Civil Twilight
Nautical Twilight
Astronomical Twilight
قمر
Length Of Visible Light
طول الیوم
Tomorrow will be .
, % of the Moon is Illuminated

Today's Extremes

Country Highs Country Lows

Community

WunderPhotos

Upload Photos

1,779,592 photos uploaded!

WunderBlogs® & News

Nearby

جودة الهواء

  جودة الهواء AQ Index Pollutant
Not available.

عمق الثلج

Station Depth Elevation

Earthquake Activity

City Distance Mag. Time & Date
Minimum magnitude displayed is 2.5.

Coastal Water Temperatures

مكان درجات الحرارة

Nearby Weather Stations